Year,Month,Day,Hour,Minute,Value (Times are PST for temperature in C)
2018,10,13,00,00,10.20
2018,10,13,00,01,10.20
2018,10,13,00,02,10.20
2018,10,13,00,03,10.20
2018,10,13,00,04,10.20
2018,10,13,00,05,10.10
2018,10,13,00,06,10.10
2018,10,13,00,07,10.10
2018,10,13,00,08,10.10
2018,10,13,00,09,10.10
2018,10,13,00,10,10.10
2018,10,13,00,11,10.00
2018,10,13,00,12,9.90
2018,10,13,00,13,9.90
2018,10,13,00,14,9.90
2018,10,13,00,15,9.90
2018,10,13,00,16,9.90
2018,10,13,00,17,9.80
2018,10,13,00,18,9.80
2018,10,13,00,19,9.80
2018,10,13,00,20,9.70
2018,10,13,00,21,9.70
2018,10,13,00,22,9.70
2018,10,13,00,23,9.70
2018,10,13,00,24,9.70
2018,10,13,00,25,9.70
2018,10,13,00,26,9.70
2018,10,13,00,27,9.70
2018,10,13,00,28,9.70
2018,10,13,00,29,9.70
2018,10,13,00,30,9.70
2018,10,13,00,31,9.60
2018,10,13,00,32,9.60
2018,10,13,00,33,9.60
2018,10,13,00,34,9.60
2018,10,13,00,35,9.50
2018,10,13,00,36,9.50
2018,10,13,00,37,9.50
2018,10,13,00,38,9.50
2018,10,13,00,39,9.50
2018,10,13,00,40,9.50
2018,10,13,00,41,9.50
2018,10,13,00,42,9.40
2018,10,13,00,43,9.40
2018,10,13,00,44,9.40
2018,10,13,00,45,9.40
2018,10,13,00,46,9.40
2018,10,13,00,47,9.40
2018,10,13,00,48,9.40
2018,10,13,00,49,9.40
2018,10,13,00,50,9.30
2018,10,13,00,51,9.30
2018,10,13,00,52,9.30
2018,10,13,00,53,9.30
2018,10,13,00,54,9.30
2018,10,13,00,55,9.30
2018,10,13,00,56,9.20
2018,10,13,00,57,9.20
2018,10,13,00,58,9.20
2018,10,13,00,59,9.20
2018,10,13,01,00,9.20
2018,10,13,01,01,9.20
2018,10,13,01,02,9.20
2018,10,13,01,03,9.20
2018,10,13,01,04,9.10
2018,10,13,01,05,9.10
2018,10,13,01,06,9.10
2018,10,13,01,07,9.00
2018,10,13,01,08,9.00
2018,10,13,01,09,9.00
2018,10,13,01,10,9.00
2018,10,13,01,11,8.90
2018,10,13,01,12,8.90
2018,10,13,01,13,8.90
2018,10,13,01,14,8.90
2018,10,13,01,15,8.80
2018,10,13,01,16,8.80
2018,10,13,01,17,8.80
2018,10,13,01,18,8.70
2018,10,13,01,19,8.70
2018,10,13,01,20,8.70
2018,10,13,01,21,8.70
2018,10,13,01,22,8.70
2018,10,13,01,23,8.70
2018,10,13,01,24,8.70
2018,10,13,01,25,8.70
2018,10,13,01,26,8.70
2018,10,13,01,27,8.70
2018,10,13,01,28,8.70
2018,10,13,01,29,8.70
2018,10,13,01,30,8.70
2018,10,13,01,31,8.70
2018,10,13,01,32,8.70
2018,10,13,01,33,8.80
2018,10,13,01,34,8.80
2018,10,13,01,35,8.80
2018,10,13,01,36,8.80
2018,10,13,01,37,8.80
2018,10,13,01,38,8.80
2018,10,13,01,39,8.80
2018,10,13,01,40,8.80
2018,10,13,01,41,8.70
2018,10,13,01,42,8.70
2018,10,13,01,43,8.80
2018,10,13,01,44,8.80
2018,10,13,01,45,8.80
2018,10,13,01,46,8.80
2018,10,13,01,47,8.80
2018,10,13,01,48,8.80
2018,10,13,01,49,8.80
2018,10,13,01,50,8.80
2018,10,13,01,51,8.80
2018,10,13,01,52,8.80
2018,10,13,01,53,8.80
2018,10,13,01,54,8.80
2018,10,13,01,55,8.80
2018,10,13,01,56,8.80
2018,10,13,01,57,8.80
2018,10,13,01,58,8.80
2018,10,13,01,59,8.80
2018,10,13,02,00,8.80
2018,10,13,02,01,8.80
2018,10,13,02,02,8.70
2018,10,13,02,03,8.70
2018,10,13,02,04,8.70
2018,10,13,02,05,8.70
2018,10,13,02,06,8.70
2018,10,13,02,07,8.70
2018,10,13,02,08,8.70
2018,10,13,02,09,8.70
2018,10,13,02,10,8.70
2018,10,13,02,11,8.70
2018,10,13,02,12,8.70
2018,10,13,02,13,8.70
2018,10,13,02,14,8.70
2018,10,13,02,15,8.70
2018,10,13,02,16,8.70
2018,10,13,02,17,8.70
2018,10,13,02,18,8.70
2018,10,13,02,19,8.70
2018,10,13,02,20,8.70
2018,10,13,02,21,8.60
2018,10,13,02,22,8.60
2018,10,13,02,23,8.60
2018,10,13,02,24,8.60
2018,10,13,02,25,8.60
2018,10,13,02,26,8.60
2018,10,13,02,27,8.60
2018,10,13,02,28,8.60
2018,10,13,02,29,8.60
2018,10,13,02,30,8.60
2018,10,13,02,31,8.60
2018,10,13,02,32,8.60
2018,10,13,02,33,8.60
2018,10,13,02,34,8.60
2018,10,13,02,35,8.60
2018,10,13,02,36,8.70
2018,10,13,02,37,8.70
2018,10,13,02,38,8.70
2018,10,13,02,39,8.70
2018,10,13,02,40,8.70
2018,10,13,02,41,8.70
2018,10,13,02,42,8.70
2018,10,13,02,43,8.70
2018,10,13,02,44,8.70
2018,10,13,02,45,8.70
2018,10,13,02,46,8.70
2018,10,13,02,47,8.70
2018,10,13,02,48,8.70
2018,10,13,02,49,8.70
2018,10,13,02,50,8.70
2018,10,13,02,51,8.70
2018,10,13,02,52,8.70
2018,10,13,02,53,8.60
2018,10,13,02,54,8.60
2018,10,13,02,55,8.60
2018,10,13,02,56,8.60
2018,10,13,02,57,8.60
2018,10,13,02,58,8.60
2018,10,13,02,59,8.60
2018,10,13,03,00,8.60
2018,10,13,03,01,8.60
2018,10,13,03,02,8.50
2018,10,13,03,03,8.50
2018,10,13,03,04,8.50
2018,10,13,03,05,8.40
2018,10,13,03,06,8.40
2018,10,13,03,07,8.40
2018,10,13,03,08,8.30
2018,10,13,03,09,8.30
2018,10,13,03,10,8.30
2018,10,13,03,11,8.30
2018,10,13,03,12,8.20
2018,10,13,03,13,8.20
2018,10,13,03,14,8.20
2018,10,13,03,15,8.20
2018,10,13,03,16,8.20
2018,10,13,03,17,8.20
2018,10,13,03,18,8.20
2018,10,13,03,19,8.20
2018,10,13,03,20,8.20
2018,10,13,03,21,8.20
2018,10,13,03,22,8.10
2018,10,13,03,23,8.10
2018,10,13,03,24,8.10
2018,10,13,03,25,8.10
2018,10,13,03,26,8.10
2018,10,13,03,27,8.10
2018,10,13,03,28,8.10
2018,10,13,03,29,8.10
2018,10,13,03,30,8.10
2018,10,13,03,31,8.10
2018,10,13,03,32,8.10
2018,10,13,03,33,8.10
2018,10,13,03,34,8.10
2018,10,13,03,35,8.10
2018,10,13,03,36,8.00
2018,10,13,03,37,8.00
2018,10,13,03,38,8.00
2018,10,13,03,39,8.00
2018,10,13,03,40,8.00
2018,10,13,03,41,8.00
2018,10,13,03,42,8.00
2018,10,13,03,43,8.00
2018,10,13,03,44,8.00
2018,10,13,03,45,7.90
2018,10,13,03,46,7.90
2018,10,13,03,47,7.90
2018,10,13,03,48,7.90
2018,10,13,03,49,7.90
2018,10,13,03,50,7.90
2018,10,13,03,51,7.90
2018,10,13,03,52,7.90
2018,10,13,03,53,7.80
2018,10,13,03,54,7.80
2018,10,13,03,55,7.80
2018,10,13,03,56,7.80
2018,10,13,03,57,7.80
2018,10,13,03,58,7.80
2018,10,13,03,59,7.80
2018,10,13,04,00,7.70
2018,10,13,04,01,7.70
2018,10,13,04,02,7.70
2018,10,13,04,03,7.70
2018,10,13,04,04,7.70
2018,10,13,04,05,7.70
2018,10,13,04,06,7.70
2018,10,13,04,07,7.70
2018,10,13,04,08,7.70
2018,10,13,04,09,7.70
2018,10,13,04,10,7.70
2018,10,13,04,11,7.60
2018,10,13,04,12,7.60
2018,10,13,04,13,7.60
2018,10,13,04,14,7.60
2018,10,13,04,15,7.60
2018,10,13,04,16,7.60
2018,10,13,04,17,7.60
2018,10,13,04,18,7.50
2018,10,13,04,19,7.50
2018,10,13,04,20,7.50
2018,10,13,04,21,7.50
2018,10,13,04,22,7.50
2018,10,13,04,23,7.50
2018,10,13,04,24,7.50
2018,10,13,04,25,7.50
2018,10,13,04,26,7.60
2018,10,13,04,27,7.60
2018,10,13,04,28,7.60
2018,10,13,04,29,7.60
2018,10,13,04,30,7.60
2018,10,13,04,31,7.60
2018,10,13,04,32,7.60
2018,10,13,04,33,7.70
2018,10,13,04,34,7.70
2018,10,13,04,35,7.70
2018,10,13,04,36,7.70
2018,10,13,04,37,7.70
2018,10,13,04,38,7.70
2018,10,13,04,39,7.60
2018,10,13,04,40,7.60
2018,10,13,04,41,7.60
2018,10,13,04,42,7.60
2018,10,13,04,43,7.70
2018,10,13,04,44,7.70
2018,10,13,04,45,7.60
2018,10,13,04,46,7.60
2018,10,13,04,47,7.60
2018,10,13,04,48,7.50
2018,10,13,04,49,7.50
2018,10,13,04,50,7.50
2018,10,13,04,51,7.50
2018,10,13,04,52,7.50
2018,10,13,04,53,7.40
2018,10,13,04,54,7.40
2018,10,13,04,55,7.40
2018,10,13,04,56,7.30
2018,10,13,04,57,7.30
2018,10,13,04,58,7.30
2018,10,13,04,59,7.30
2018,10,13,05,00,7.30
2018,10,13,05,01,7.30
2018,10,13,05,02,7.30
2018,10,13,05,03,7.30
2018,10,13,05,04,7.30
2018,10,13,05,05,7.30
2018,10,13,05,06,7.30
2018,10,13,05,07,7.30
2018,10,13,05,08,7.30
2018,10,13,05,09,7.30
2018,10,13,05,10,7.30
2018,10,13,05,11,7.20
2018,10,13,05,12,7.20
2018,10,13,05,13,7.20
2018,10,13,05,14,7.20
2018,10,13,05,15,7.20
2018,10,13,05,16,7.20
2018,10,13,05,17,7.20
2018,10,13,05,18,7.20
2018,10,13,05,19,7.20
2018,10,13,05,20,7.20
2018,10,13,05,21,7.20
2018,10,13,05,22,7.20
2018,10,13,05,23,7.20
2018,10,13,05,24,7.20
2018,10,13,05,25,7.20
2018,10,13,05,26,7.30
2018,10,13,05,27,7.30
2018,10,13,05,28,7.30
2018,10,13,05,29,7.30
2018,10,13,05,30,7.30
2018,10,13,05,31,7.30
2018,10,13,05,32,7.30
2018,10,13,05,33,7.30
2018,10,13,05,34,7.30
2018,10,13,05,35,7.30
2018,10,13,05,36,7.30
2018,10,13,05,37,7.30
2018,10,13,05,38,7.30
2018,10,13,05,39,7.40
2018,10,13,05,40,7.40
2018,10,13,05,41,7.50
2018,10,13,05,42,7.50
2018,10,13,05,43,7.60
2018,10,13,05,44,7.60
2018,10,13,05,45,7.70
2018,10,13,05,46,7.70
2018,10,13,05,47,7.70
2018,10,13,05,48,7.70
2018,10,13,05,49,7.70
2018,10,13,05,50,7.70
2018,10,13,05,51,7.80
2018,10,13,05,52,7.80
2018,10,13,05,53,7.80
2018,10,13,05,54,7.80
2018,10,13,05,55,7.80
2018,10,13,05,56,7.80
2018,10,13,05,57,7.80
2018,10,13,05,58,7.80
2018,10,13,05,59,7.80
2018,10,13,06,00,7.80
2018,10,13,06,01,7.80
2018,10,13,06,02,7.80
2018,10,13,06,03,7.80
2018,10,13,06,04,7.90
2018,10,13,06,05,7.90
2018,10,13,06,06,7.90
2018,10,13,06,07,7.90
2018,10,13,06,08,7.90
2018,10,13,06,09,7.90
2018,10,13,06,10,7.90
2018,10,13,06,11,7.90
2018,10,13,06,12,7.90
2018,10,13,06,13,7.90
2018,10,13,06,14,7.90
2018,10,13,06,15,7.90
2018,10,13,06,16,7.90
2018,10,13,06,17,7.90
2018,10,13,06,18,7.90
2018,10,13,06,19,7.90
2018,10,13,06,20,7.90
2018,10,13,06,21,7.80
2018,10,13,06,22,7.80
2018,10,13,06,23,7.80
2018,10,13,06,24,7.80
2018,10,13,06,25,7.80
2018,10,13,06,26,7.80
2018,10,13,06,27,7.80
2018,10,13,06,28,7.80
2018,10,13,06,29,7.80
2018,10,13,06,30,7.80
2018,10,13,06,31,7.80
2018,10,13,06,32,7.80
2018,10,13,06,33,7.80
2018,10,13,06,34,7.80
2018,10,13,06,35,7.80
2018,10,13,06,36,7.80
2018,10,13,06,37,7.80
2018,10,13,06,38,7.80
2018,10,13,06,39,7.80
2018,10,13,06,40,7.70
2018,10,13,06,41,7.70
2018,10,13,06,42,7.70
2018,10,13,06,43,7.60
2018,10,13,06,44,7.60
2018,10,13,06,45,7.60
2018,10,13,06,46,7.60
2018,10,13,06,47,7.60
2018,10,13,06,48,7.50
2018,10,13,06,49,7.50
2018,10,13,06,50,7.50
2018,10,13,06,51,7.40
2018,10,13,06,52,7.40
2018,10,13,06,53,7.40
2018,10,13,06,54,7.40
2018,10,13,06,55,7.40
2018,10,13,06,56,7.30
2018,10,13,06,57,7.30
2018,10,13,06,58,7.30
2018,10,13,06,59,7.30
2018,10,13,07,00,7.30
2018,10,13,07,01,7.40
2018,10,13,07,02,7.40
2018,10,13,07,03,7.40
2018,10,13,07,04,7.40
2018,10,13,07,05,7.40
2018,10,13,07,06,7.40
2018,10,13,07,07,7.40
2018,10,13,07,08,7.40
2018,10,13,07,09,7.40
2018,10,13,07,10,7.40
2018,10,13,07,11,7.30
2018,10,13,07,12,7.30
2018,10,13,07,13,7.30
2018,10,13,07,14,7.30
2018,10,13,07,15,7.30
2018,10,13,07,16,7.30
2018,10,13,07,17,7.30
2018,10,13,07,18,7.30
2018,10,13,07,19,7.30
2018,10,13,07,20,7.30
2018,10,13,07,21,7.30
2018,10,13,07,22,7.30
2018,10,13,07,23,7.30
2018,10,13,07,24,7.30
2018,10,13,07,25,7.30
2018,10,13,07,26,7.30
2018,10,13,07,27,7.30
2018,10,13,07,28,7.30
2018,10,13,07,29,7.30
2018,10,13,07,30,7.30
2018,10,13,07,31,7.30
2018,10,13,07,32,7.30
2018,10,13,07,33,7.30
2018,10,13,07,34,7.30
2018,10,13,07,35,7.30
2018,10,13,07,36,7.30
2018,10,13,07,37,7.30
2018,10,13,07,38,7.30
2018,10,13,07,39,7.20
2018,10,13,07,40,7.20
2018,10,13,07,41,7.20
2018,10,13,07,42,7.20
2018,10,13,07,43,7.20
2018,10,13,07,44,7.20
2018,10,13,07,45,7.20
2018,10,13,07,46,7.20
2018,10,13,07,47,7.20
2018,10,13,07,48,7.20
2018,10,13,07,49,7.10
2018,10,13,07,50,7.10
2018,10,13,07,51,7.10
2018,10,13,07,52,7.10
2018,10,13,07,53,7.10
2018,10,13,07,54,7.20
2018,10,13,07,55,7.20
2018,10,13,07,56,7.20
2018,10,13,07,57,7.20
2018,10,13,07,58,7.20
2018,10,13,07,59,7.20
2018,10,13,08,00,7.10
2018,10,13,08,01,7.10
2018,10,13,08,02,7.10
2018,10,13,08,03,7.10
2018,10,13,08,04,7.10
2018,10,13,08,05,7.10
2018,10,13,08,06,7.20
2018,10,13,08,07,7.20
2018,10,13,08,08,7.20
2018,10,13,08,09,7.20
2018,10,13,08,10,7.30
2018,10,13,08,11,7.30
2018,10,13,08,12,7.30
2018,10,13,08,13,7.30
2018,10,13,08,14,7.30
2018,10,13,08,15,7.30
2018,10,13,08,16,7.30
2018,10,13,08,17,7.30
2018,10,13,08,18,7.30
2018,10,13,08,19,7.40
2018,10,13,08,20,7.40
2018,10,13,08,21,7.40
2018,10,13,08,22,7.50
2018,10,13,08,23,7.50
2018,10,13,08,24,7.50
2018,10,13,08,25,7.60
2018,10,13,08,26,7.60
2018,10,13,08,27,7.60
2018,10,13,08,28,7.70
2018,10,13,08,29,7.70
2018,10,13,08,30,7.70
2018,10,13,08,31,7.80
2018,10,13,08,32,7.80
2018,10,13,08,33,7.90
2018,10,13,08,34,8.00
2018,10,13,08,35,8.10
2018,10,13,08,36,8.20
2018,10,13,08,37,8.30
2018,10,13,08,38,8.40
2018,10,13,08,39,8.40
2018,10,13,08,40,8.50
2018,10,13,08,41,8.60
2018,10,13,08,42,8.70
2018,10,13,08,43,8.80
2018,10,13,08,44,9.00
2018,10,13,08,45,9.10
2018,10,13,08,46,9.30
2018,10,13,08,47,9.40
2018,10,13,08,48,9.60
2018,10,13,08,49,9.70
2018,10,13,08,50,9.90
2018,10,13,08,51,10.00
2018,10,13,08,52,10.10
2018,10,13,08,53,10.20
2018,10,13,08,54,10.40
2018,10,13,08,55,10.50
2018,10,13,08,56,10.70
2018,10,13,08,57,10.80
2018,10,13,08,58,10.80
2018,10,13,08,59,10.80
2018,10,13,09,00,10.80
2018,10,13,09,01,10.80
2018,10,13,09,02,10.80
2018,10,13,09,03,10.80
2018,10,13,09,04,10.80
2018,10,13,09,05,10.80
2018,10,13,09,06,10.80
2018,10,13,09,07,10.80
2018,10,13,09,08,10.90
2018,10,13,09,09,10.90
2018,10,13,09,10,11.00
2018,10,13,09,11,11.20
2018,10,13,09,12,11.20
2018,10,13,09,13,11.30
2018,10,13,09,14,11.40
2018,10,13,09,15,11.40
2018,10,13,09,16,11.40
2018,10,13,09,17,11.40
2018,10,13,09,18,11.50
2018,10,13,09,19,11.60
2018,10,13,09,20,11.60
2018,10,13,09,21,11.60
2018,10,13,09,22,11.50
2018,10,13,09,23,11.40
2018,10,13,09,24,11.40
2018,10,13,09,25,11.40
2018,10,13,09,26,11.60
2018,10,13,09,27,11.60
2018,10,13,09,28,11.60
2018,10,13,09,29,11.60
2018,10,13,09,30,11.70
2018,10,13,09,31,11.80
2018,10,13,09,32,11.90
2018,10,13,09,33,12.00
2018,10,13,09,34,12.10
2018,10,13,09,35,12.30
2018,10,13,09,36,12.30
2018,10,13,09,37,12.40
2018,10,13,09,38,12.40
2018,10,13,09,39,12.40
2018,10,13,09,40,12.40
2018,10,13,09,41,12.50
2018,10,13,09,42,12.50
2018,10,13,09,43,12.50
2018,10,13,09,44,12.60
2018,10,13,09,45,12.70
2018,10,13,09,46,12.80
2018,10,13,09,47,12.80
2018,10,13,09,48,12.80
2018,10,13,09,49,12.80
2018,10,13,09,50,12.80
2018,10,13,09,51,12.80
2018,10,13,09,52,12.70
2018,10,13,09,53,12.60
2018,10,13,09,54,12.60
2018,10,13,09,55,12.60
2018,10,13,09,56,12.50
2018,10,13,09,57,12.50
2018,10,13,09,58,12.40
2018,10,13,09,59,12.50
2018,10,13,10,00,12.50
2018,10,13,10,01,12.60
2018,10,13,10,02,12.70
2018,10,13,10,03,12.80
2018,10,13,10,04,12.90
2018,10,13,10,05,13.00
2018,10,13,10,06,13.20
2018,10,13,10,07,13.20
2018,10,13,10,08,13.10
2018,10,13,10,09,13.10
2018,10,13,10,10,13.10
2018,10,13,10,11,13.10
2018,10,13,10,12,13.10
2018,10,13,10,13,13.20
2018,10,13,10,14,13.20
2018,10,13,10,15,13.30
2018,10,13,10,16,13.30
2018,10,13,10,17,13.30
2018,10,13,10,18,13.40
2018,10,13,10,19,13.40
2018,10,13,10,20,13.40
2018,10,13,10,21,13.20
2018,10,13,10,22,13.10
2018,10,13,10,23,13.00
2018,10,13,10,24,13.00
2018,10,13,10,25,13.10
2018,10,13,10,26,13.20
2018,10,13,10,27,13.20
2018,10,13,10,28,13.30
2018,10,13,10,29,13.30
2018,10,13,10,30,13.30
2018,10,13,10,31,13.30
2018,10,13,10,32,13.30
2018,10,13,10,33,13.30
2018,10,13,10,34,13.30
2018,10,13,10,35,13.30
2018,10,13,10,36,13.40
2018,10,13,10,37,13.50
2018,10,13,10,38,13.50
2018,10,13,10,39,13.60
2018,10,13,10,40,13.60
2018,10,13,10,41,13.50
2018,10,13,10,42,13.50
2018,10,13,10,43,13.60
2018,10,13,10,44,13.60
2018,10,13,10,45,13.60
2018,10,13,10,46,13.60
2018,10,13,10,47,13.70
2018,10,13,10,48,13.70
2018,10,13,10,49,13.80
2018,10,13,10,50,13.90
2018,10,13,10,51,13.90
2018,10,13,10,52,14.00
2018,10,13,10,53,14.00
2018,10,13,10,54,14.10
2018,10,13,10,55,14.10
2018,10,13,10,56,14.10
2018,10,13,10,57,14.10
2018,10,13,10,58,14.00
2018,10,13,10,59,13.90
2018,10,13,11,00,13.90
2018,10,13,11,01,13.80
2018,10,13,11,02,13.90
2018,10,13,11,03,13.80
2018,10,13,11,04,13.80
2018,10,13,11,05,13.80
2018,10,13,11,06,13.70
2018,10,13,11,07,13.70
2018,10,13,11,08,13.70
2018,10,13,11,09,13.70
2018,10,13,11,10,13.70
2018,10,13,11,11,13.80
2018,10,13,11,12,13.80
2018,10,13,11,13,13.80
2018,10,13,11,14,13.90
2018,10,13,11,15,13.80
2018,10,13,11,16,13.90
2018,10,13,11,17,14.00
2018,10,13,11,18,14.00
2018,10,13,11,19,14.10
2018,10,13,11,20,14.20
2018,10,13,11,21,14.20
2018,10,13,11,22,14.20
2018,10,13,11,23,14.40
2018,10,13,11,24,14.50
2018,10,13,11,25,14.50
2018,10,13,11,26,14.60
2018,10,13,11,27,14.60
2018,10,13,11,28,14.60
2018,10,13,11,29,14.50
2018,10,13,11,30,14.50
2018,10,13,11,31,14.40
2018,10,13,11,32,14.50
2018,10,13,11,33,14.50
2018,10,13,11,34,14.50
2018,10,13,11,35,14.50
2018,10,13,11,36,14.60
2018,10,13,11,37,14.60
2018,10,13,11,38,14.70
2018,10,13,11,39,14.70
2018,10,13,11,40,14.70
2018,10,13,11,41,14.60
2018,10,13,11,42,14.60
2018,10,13,11,43,14.60
2018,10,13,11,44,14.50
2018,10,13,11,45,14.40
2018,10,13,11,46,14.40
2018,10,13,11,47,14.40
2018,10,13,11,48,14.50
2018,10,13,11,49,14.50
2018,10,13,11,50,14.60
2018,10,13,11,51,14.70
2018,10,13,11,52,14.70
2018,10,13,11,53,14.60
2018,10,13,11,54,14.50
2018,10,13,11,55,14.40
2018,10,13,11,56,14.40
2018,10,13,11,57,14.40
2018,10,13,11,58,14.50
2018,10,13,11,59,14.50
2018,10,13,12,00,14.50
2018,10,13,12,01,14.50
2018,10,13,12,02,14.40
2018,10,13,12,03,14.30
2018,10,13,12,04,14.40
2018,10,13,12,05,14.40
2018,10,13,12,06,14.40
2018,10,13,12,07,14.40
2018,10,13,12,08,14.50
2018,10,13,12,09,14.50
2018,10,13,12,10,14.50
2018,10,13,12,11,14.40
2018,10,13,12,12,14.40
2018,10,13,12,13,14.40
2018,10,13,12,14,14.40
2018,10,13,12,15,14.40
2018,10,13,12,16,14.50
2018,10,13,12,17,14.50
2018,10,13,12,18,14.50
2018,10,13,12,19,14.60
2018,10,13,12,20,14.60
2018,10,13,12,21,14.70
2018,10,13,12,22,14.70
2018,10,13,12,23,14.80
2018,10,13,12,24,14.90
2018,10,13,12,25,14.90
2018,10,13,12,26,15.00
2018,10,13,12,27,15.10
2018,10,13,12,28,15.20
2018,10,13,12,29,15.20
2018,10,13,12,30,15.20
2018,10,13,12,31,15.30
2018,10,13,12,32,15.20
2018,10,13,12,33,15.20
2018,10,13,12,34,15.20
2018,10,13,12,35,15.20
2018,10,13,12,36,15.30
2018,10,13,12,37,15.20
2018,10,13,12,38,15.20
2018,10,13,12,39,15.20
2018,10,13,12,40,15.20
2018,10,13,12,41,15.20
2018,10,13,12,42,15.20
2018,10,13,12,43,15.30
2018,10,13,12,44,15.30
2018,10,13,12,45,15.30
2018,10,13,12,46,15.30
2018,10,13,12,47,15.30
2018,10,13,12,48,15.30
2018,10,13,12,49,15.30
2018,10,13,12,50,15.30
2018,10,13,12,51,15.30
2018,10,13,12,52,15.30
2018,10,13,12,53,15.40
2018,10,13,12,54,15.40
2018,10,13,12,55,15.50
2018,10,13,12,56,15.40
2018,10,13,12,57,15.50
2018,10,13,12,58,15.50
2018,10,13,12,59,15.50
2018,10,13,13,00,15.60
2018,10,13,13,01,15.70
2018,10,13,13,02,15.80
2018,10,13,13,03,15.80
2018,10,13,13,04,15.80
2018,10,13,13,05,15.80
2018,10,13,13,06,15.90
2018,10,13,13,07,15.90
2018,10,13,13,08,16.00
2018,10,13,13,09,16.10
2018,10,13,13,10,16.10
2018,10,13,13,11,16.20
2018,10,13,13,12,16.20
2018,10,13,13,13,16.20
2018,10,13,13,14,16.10
2018,10,13,13,15,16.20
2018,10,13,13,16,16.20
2018,10,13,13,17,16.20
2018,10,13,13,18,16.30
2018,10,13,13,19,16.30
2018,10,13,13,20,16.30
2018,10,13,13,21,16.30
2018,10,13,13,22,16.30
2018,10,13,13,23,16.30
2018,10,13,13,24,16.30
2018,10,13,13,25,16.30
2018,10,13,13,26,16.30
2018,10,13,13,27,16.40
2018,10,13,13,28,16.40
2018,10,13,13,29,16.40
2018,10,13,13,30,16.50
2018,10,13,13,31,16.60
2018,10,13,13,32,16.60
2018,10,13,13,33,16.70
2018,10,13,13,34,16.70
2018,10,13,13,35,16.70
2018,10,13,13,36,16.70
2018,10,13,13,37,16.70
2018,10,13,13,38,16.70
2018,10,13,13,39,16.70
2018,10,13,13,40,16.70
2018,10,13,13,41,16.70
2018,10,13,13,42,16.80
2018,10,13,13,43,16.80
2018,10,13,13,44,16.90
2018,10,13,13,45,17.00
2018,10,13,13,46,17.00
2018,10,13,13,47,17.10
2018,10,13,13,48,17.10
2018,10,13,13,49,17.10
2018,10,13,13,50,17.10
2018,10,13,13,51,17.10
2018,10,13,13,52,17.10
2018,10,13,13,53,17.10
2018,10,13,13,54,17.20
2018,10,13,13,55,17.20
2018,10,13,13,56,17.30
2018,10,13,13,57,17.30
2018,10,13,13,58,17.30
2018,10,13,13,59,17.40
2018,10,13,14,00,17.40
2018,10,13,14,01,17.40
2018,10,13,14,02,17.40
2018,10,13,14,03,17.50
2018,10,13,14,04,17.40
2018,10,13,14,05,17.40
2018,10,13,14,06,17.40
2018,10,13,14,07,17.40
2018,10,13,14,08,17.40
2018,10,13,14,09,17.30
2018,10,13,14,10,17.30
2018,10,13,14,11,17.20
2018,10,13,14,12,17.20
2018,10,13,14,13,17.30
2018,10,13,14,14,17.30
2018,10,13,14,15,17.30
2018,10,13,14,16,17.30
2018,10,13,14,17,17.40
2018,10,13,14,18,17.40
2018,10,13,14,19,17.40
2018,10,13,14,20,17.30
2018,10,13,14,21,17.30
2018,10,13,14,22,17.30
2018,10,13,14,23,17.30
2018,10,13,14,24,17.30
2018,10,13,14,25,17.30
2018,10,13,14,26,17.30
2018,10,13,14,27,17.30
2018,10,13,14,28,17.30
2018,10,13,14,29,17.40
2018,10,13,14,30,17.40
2018,10,13,14,31,17.40
2018,10,13,14,32,17.50
2018,10,13,14,33,17.50
2018,10,13,14,34,17.50
2018,10,13,14,35,17.50
2018,10,13,14,36,17.60
2018,10,13,14,37,17.60
2018,10,13,14,38,17.60
2018,10,13,14,39,17.60
2018,10,13,14,40,17.60
2018,10,13,14,41,17.60
2018,10,13,14,42,17.60
2018,10,13,14,43,17.60
2018,10,13,14,44,17.60
2018,10,13,14,45,17.50
2018,10,13,14,46,17.50
2018,10,13,14,47,17.40
2018,10,13,14,48,17.30
2018,10,13,14,49,17.30
2018,10,13,14,50,17.30
2018,10,13,14,51,17.30
2018,10,13,14,52,17.30
2018,10,13,14,53,17.30
2018,10,13,14,54,17.30
2018,10,13,14,55,17.20
2018,10,13,14,56,17.20
2018,10,13,14,57,17.10
2018,10,13,14,58,17.00
2018,10,13,14,59,17.00
2018,10,13,15,00,16.90
2018,10,13,15,01,16.90
2018,10,13,15,02,16.80
2018,10,13,15,03,16.90
2018,10,13,15,04,16.90
2018,10,13,15,05,17.00
2018,10,13,15,06,17.00
2018,10,13,15,07,17.10
2018,10,13,15,08,17.20
2018,10,13,15,09,17.20
2018,10,13,15,10,17.30
2018,10,13,15,11,17.30
2018,10,13,15,12,17.40
2018,10,13,15,13,17.50
2018,10,13,15,14,17.60
2018,10,13,15,15,17.60
2018,10,13,15,16,17.60
2018,10,13,15,17,17.60
2018,10,13,15,18,17.50
2018,10,13,15,19,17.50
2018,10,13,15,20,17.60
2018,10,13,15,21,17.60
2018,10,13,15,22,17.70
2018,10,13,15,23,17.70
2018,10,13,15,24,17.80
2018,10,13,15,25,17.80
2018,10,13,15,26,17.80
2018,10,13,15,27,17.80
2018,10,13,15,28,17.80
2018,10,13,15,29,17.80
2018,10,13,15,30,17.80
2018,10,13,15,31,17.70
2018,10,13,15,32,17.70
2018,10,13,15,33,17.60
2018,10,13,15,34,17.60
2018,10,13,15,35,17.60
2018,10,13,15,36,17.60
2018,10,13,15,37,17.60
2018,10,13,15,38,17.70
2018,10,13,15,39,17.70
2018,10,13,15,40,17.70
2018,10,13,15,41,17.70
2018,10,13,15,42,17.70
2018,10,13,15,43,17.70
2018,10,13,15,44,17.70
2018,10,13,15,45,17.70
2018,10,13,15,46,17.70
2018,10,13,15,47,17.70
2018,10,13,15,48,17.70
2018,10,13,15,49,17.70
2018,10,13,15,50,17.70
2018,10,13,15,51,17.70
2018,10,13,15,52,17.70
2018,10,13,15,53,17.70
2018,10,13,15,54,17.70
2018,10,13,15,55,17.70
2018,10,13,15,56,17.70
2018,10,13,15,57,17.70
2018,10,13,15,58,17.70
2018,10,13,15,59,17.70
2018,10,13,16,00,17.70
2018,10,13,16,01,17.70
2018,10,13,16,02,17.70
2018,10,13,16,03,17.70
2018,10,13,16,04,17.70
2018,10,13,16,05,17.70
2018,10,13,16,06,17.70
2018,10,13,16,07,17.70
2018,10,13,16,08,17.70
2018,10,13,16,09,17.70
2018,10,13,16,10,17.70
2018,10,13,16,11,17.70
2018,10,13,16,12,17.70
2018,10,13,16,13,17.70
2018,10,13,16,14,17.70
2018,10,13,16,15,17.80
2018,10,13,16,16,17.80
2018,10,13,16,17,17.90
2018,10,13,16,18,17.90
2018,10,13,16,19,17.90
2018,10,13,16,20,18.00
2018,10,13,16,21,18.10
2018,10,13,16,22,18.10
2018,10,13,16,23,18.10
2018,10,13,16,24,18.10
2018,10,13,16,25,18.10
2018,10,13,16,26,18.20
2018,10,13,16,27,18.20
2018,10,13,16,28,18.20
2018,10,13,16,29,18.20
2018,10,13,16,30,18.20
2018,10,13,16,31,18.20
2018,10,13,16,32,18.10
2018,10,13,16,33,18.10
2018,10,13,16,34,18.10
2018,10,13,16,35,18.00
2018,10,13,16,36,17.90
2018,10,13,16,37,17.90
2018,10,13,16,38,17.90
2018,10,13,16,39,17.90
2018,10,13,16,40,17.90
2018,10,13,16,41,17.90
2018,10,13,16,42,17.90
2018,10,13,16,43,17.90
2018,10,13,16,44,17.90
2018,10,13,16,45,17.90
2018,10,13,16,46,17.90
2018,10,13,16,47,17.90
2018,10,13,16,48,17.90
2018,10,13,16,49,17.90
2018,10,13,16,50,17.90
2018,10,13,16,51,17.90
2018,10,13,16,52,17.90
2018,10,13,16,53,17.90
2018,10,13,16,54,17.90
2018,10,13,16,55,17.90
2018,10,13,16,56,17.90
2018,10,13,16,57,17.80
2018,10,13,16,58,17.80
2018,10,13,16,59,17.80
2018,10,13,17,00,17.80
2018,10,13,17,01,17.80
2018,10,13,17,02,17.70
2018,10,13,17,03,17.70
2018,10,13,17,04,17.70
2018,10,13,17,05,17.60
2018,10,13,17,06,17.60
2018,10,13,17,07,17.50
2018,10,13,17,08,17.50
2018,10,13,17,09,17.40
2018,10,13,17,10,17.40
2018,10,13,17,11,17.40
2018,10,13,17,12,17.40
2018,10,13,17,13,17.40
2018,10,13,17,14,17.30
2018,10,13,17,15,17.30
2018,10,13,17,16,17.30
2018,10,13,17,17,17.30
2018,10,13,17,18,17.30
2018,10,13,17,19,17.30
2018,10,13,17,20,17.30
2018,10,13,17,21,17.20
2018,10,13,17,22,17.20
2018,10,13,17,23,17.10
2018,10,13,17,24,17.00
2018,10,13,17,25,16.90
2018,10,13,17,26,16.90
2018,10,13,17,27,16.80
2018,10,13,17,28,16.80
2018,10,13,17,29,16.70
2018,10,13,17,30,16.70
2018,10,13,17,31,16.60
2018,10,13,17,32,16.50
2018,10,13,17,33,16.40
2018,10,13,17,34,16.30
2018,10,13,17,35,16.20
2018,10,13,17,36,16.10
2018,10,13,17,37,16.10
2018,10,13,17,38,15.90
2018,10,13,17,39,15.80
2018,10,13,17,40,15.80
2018,10,13,17,41,15.60
2018,10,13,17,42,15.50